Mount Washington, New Hampshire, United States (03589)
Lat: 44.69N, Lon: 71.39W
Wx Zone: NHZ002
Local Info
Past Weather Observations for Today

NOTE: This archive is for the closest National Weather Service station to Mount Washington. Information may differ from the station used for current weather conditions.

Click here for Long-term Archive

Time Weather Temperature Dewpoint Humidity Pressure Winds Precip Visibility
15:52
Overcast
Rain
46°F / 8°C 45°F / 7°C 93% 30.04 in
(1017 mb)
NNW 3.5 mph
(NNW 6 kph)
0.03 in
(0.76 mm)
4SM
14:52
Overcast
Light Rain
46°F / 8°C 45°F / 7°C 93% 30.01 in
(1016 mb)
NNW 5.8 mph
(NNW 9 kph)
0.02 in
(0.51 mm)
10SM
13:52
Overcast
Light Rain
46°F / 8°C 45°F / 7°C 93% 30.01 in
(1016 mb)
NW 3.5 mph
(NW 6 kph)
0.01 in
(0.25 mm)
6SM
13:09
Overcast
Light Rain
46°F / 8°C 45°F / 7°C 93% 30.01 in
(1016 mb)
Calm 0.00 in
(0.00 mm)
7SM
12:52
Overcast
Light Rain
46°F / 8°C 45°F / 7°C 93% 30.01 in
(1016 mb)
NW 4.6 mph
(NW 7 kph)
0.01 in
(0.25 mm)
9SM
12:09
Overcast
Light Rain
46°F / 8°C 45°F / 7°C 93% 30.04 in
(1017 mb)
N 5.8 mph
(N 9 kph)
0.00 in
(0.00 mm)
10SM
11:52
Overcast
Light Rain
46°F / 8°C 43°F / 6°C 87% 30.04 in
(1017 mb)
N 6.9 mph
(N 11 kph)
0.00 in
(0.00 mm)
10SM
10:52
Overcast
Light Rain
46°F / 8°C 45°F / 7°C 93% 30.04 in
(1017 mb)
NNW 4.6 mph
(NNW 7 kph)
0.01 in
(0.25 mm)
9SM
09:52
Overcast
45°F / 7°C 39°F / 4°C 81% 30.04 in
(1017 mb)
Calm - 10SM
09:15
Overcast
43°F / 6°C 39°F / 4°C 87% 30.04 in
(1017 mb)
Calm - 10SM
08:52
Overcast
43°F / 6°C 39°F / 4°C 87% 30.04 in
(1017 mb)
Calm 0.00 in
(0.00 mm)
10SM
08:38
Overcast
43°F / 6°C 39°F / 4°C 87% 30.04 in
(1017 mb)
Calm 0.00 in
(0.00 mm)
10SM
07:52
Overcast
Light Rain
39°F / 4°C 37°F / 3°C 93% 30.04 in
(1017 mb)
SW 3.5 mph
(SW 6 kph)
0.01 in
(0.25 mm)
8SM
06:52
Overcast
Light Rain
37°F / 3°C 36°F / 2°C 93% 30.01 in
(1016 mb)
Calm 0.03 in
(0.76 mm)
6SM
05:52
Overcast
Light Rain
37°F / 3°C 36°F / 2°C 93% 30.01 in
(1016 mb)
Calm 0.00 in
(0.00 mm)
10SM
04:52
Overcast
Light Rain
37°F / 3°C 36°F / 2°C 93% 30.01 in
(1016 mb)
Calm 0.00 in
(0.00 mm)
8SM
03:52
Overcast
36°F / 2°C 34°F / 1°C 93% 29.98 in
(1015 mb)
Calm - 10SM
02:52
Overcast
36°F / 2°C 34°F / 1°C 93% 29.98 in
(1015 mb)
Calm - 10SM
01:52
Overcast
34°F / 1°C 32°F / 0°C 93% 29.98 in
(1015 mb)
Calm - 10SM
00:52
Mostly Cloudy
34°F / 1°C 32°F / 0°C 93% 29.98 in
(1015 mb)
Calm - 10SM
Time Weather Temperature Dewpoint Humidity Pressure Winds Precip Visibility


Weather for websites

WeatherForYou.com, LLC is not responsible for any damages or problems caused by this service. Current weather conditions are obtained from the closest station including government and personal stations which may have varying degrees of accuracy. Weather forecasts are derived from the NOAA NDFD. Like all things, this site belongs to Jesus Christ... He just trusts me to maintain it. If you have any questions or comments email webmaster@weatherforyou.com

Copyright © 2014, WeatherForYou.com LLC. All rights reserved.